Current weather by "City, St" or "zip code"  
 

Current Conditions: Quincy Municipal Airport, FL

Partly Cloudy


84.0 F

Last Updated on Oct 21 2021, 1:55 pm EDT
Humidity: 58%
Wind Speed: SW 5.8 mph
Barometer 30.17 in
Dewpoint: 68.0 F
Visibility: 10.00 mi
Precip: --
Heat Index: 87 F
Wind Chill: NA
Current conditions at:

Quincy Municipal Airport, FL (K2J9)

Lat: 30.59787 Lon: 84.55743

Local Radar Image active severe weather and emergency alerts image image weather storm and storm spotter reports image weather observation monitoring service image
Local
Radar
Active
Alerts
Storm Reports Obs
Monitoring

Sign-up For Email & Text Message Weather Alert Notification Services



Advertise Here

Observation History for Quincy Municipal Airport, FL


Time Wind
(mph)
Vis
(mi)
Weather Precip (in) Temperature (F) Relative
Humidity
Wind
Chill
(F)
Heat
Index
(F)
Pressure
Air Dwpt altimeter
(in)
sea level
(mb)
Rmks
1:55 pm EDT SW 5.8 10.00 Partly Cloudy -- 84.0 68.0 58% NA 87 30.17 M
12:55 pm EDT 5.8 10.00 Overcast -- 81.0 68.0 66% NA 84 30.19 M
11:55 am EDT S 5.8 10.00 Fair -- 81.0 68.0 66% NA 84 30.20 M
10:55 am EDT S 4.6 10.00 Fair -- 77.0 66.2 69% NA NA 30.21 M
9:55 am EDT SE 3.5 10.00 Partly Cloudy -- 70.0 62.6 78% NA NA 30.21 M
8:35 am EDT N 0.0 10.00 Fair -- 61.0 60.8 100% NA NA 30.19 M
7:55 am EDT N 0.0 10.00 A Few Clouds -- 61.0 60.8 100% NA NA 30.18 M
6:55 am EDT N 0.0 10.00 Mostly Cloudy -- 61.0 60.8 100% NA NA 30.17 M
5:55 am EDT N 0.0 10.00 Mostly Cloudy -- 63.0 62.6 100% NA NA 30.16 M
4:55 am EDT E 3.5 10.00 Mostly Cloudy -- 63.0 62.6 100% NA NA 30.17 M
3:55 am EDT N 0.0 10.00 A Few Clouds -- 63.0 62.6 100% NA NA 30.17 M
2:35 am EDT N 0.0 10.00 Overcast -- 63.0 62.6 100% NA NA 30.18 M
1:55 am EDT N 0.0 10.00 Overcast -- 63.0 62.6 100% NA NA 30.19 M
12:55 am EDT N 0.0 10.00 A Few Clouds -- 63.0 62.6 100% NA NA 30.21 M
11:55 pm EDT N 0.0 10.00 Fair -- 63.0 62.6 100% NA NA 30.22 M
10:55 pm EDT N 0.0 10.00 A Few Clouds -- 63.0 62.6 100% NA NA 30.21 M
9:55 pm EDT N 0.0 10.00 Fair -- 64.0 62.6 94% NA NA 30.20 M
8:55 pm EDT N 0.0 10.00 Fair -- 64.0 64.4 100% NA NA 30.20 M
7:55 pm EDT N 0.0 10.00 A Few Clouds -- 68.0 64.4 88% NA NA 30.20 M
6:55 pm EDT N 0.0 10.00 Fair -- 72.0 66.2 83% NA NA 30.19 M
5:55 pm EDT N 0.0 10.00 Fair -- 77.0 64.4 65% NA NA 30.19 M
4:55 pm EDT N 0.0 10.00 Fair -- 81.0 60.8 51% NA 82 30.20 M
3:55 pm EDT N 0.0 10.00 Fair -- 82.0 59.0 45% NA 82 30.20 M
2:55 pm EDT 3.5 10.00 Fair -- 82.0 59.0 45% NA 82 30.22 M

Regional Weather Observation


Quincy Municipal Airport, FL (K2J9)

Partly Cloudy
84.0 F

Donalsonville Municipal Airport, GA (K17J)

Overcast with Haze
81.0 F

Tallahassee International Airport, FL (KTLH)

Mostly Cloudy
82.0 F

Marianna Municipal Airport, FL (KMAI)

Overcast
81.0 F

Camilla-Mitchell County Airport, GA (KCXU)

Partly Cloudy
82.0 F

Blakely, Early County Airport, GA (KBIJ)

Overcast
79.0 F

Advertise Here


Advertise Here